Flag for Germany Weather past 2 weeks in Regensburg, Bavaria, Germany

Now
46 °F

Light freezing rain. Low clouds.


Feels Like: 43 °F
Forecast: 34 / 56 °F
Wind: 5 mph from Northwest

Location: Regensburg

Current Time: Apr 28, 2015 at 7:21:38 AM

Latest Report: Apr 28, 2015 at 7:00 AM


Visibility: 6 mi

Pressure: 29.67 "Hg

Humidity: 97%

Dew point: 45 °F

Location of RegensburgLocation

Historic Weather in Regensburg — Graph

°F

Regensburg temperature yesterday

Maximum temperature yesterday: 75 °F (at 5:00 PM)
Minimum temperature yesterday: 45 °F (at 7:00 AM)
Average temperature yesterday: 60 °F

Past Weeks' High & Low Weather Summary

 TemperatureHumidityPressure
High79 °F (Apr 15, 5:00 PM)99% (Apr 26, 3:00 AM)30.47 "Hg (Apr 26, 3:00 AM)
Low28 °F (Apr 19, 6:00 AM)21% (Apr 21, 6:00 PM)29.41 "Hg (Apr 27, 7:00 PM)
Average53 °F62%30.06 "Hg
* Reported Apr 13 6:00 AM — Apr 28 6:00 AM, Regensburg, Weather by CustomWeather, © 2015

Note: Actual official high and low records may vary slightly from our data, if they occured in-between our weather recording intervals... More about our weather records

Advertising

Regensburg weather history for previous 24 hours

 ConditionsComfort  
Time TempWeatherWind HumidityBarometerVisibility
6:00 AM
Tue, Apr 28
46 °FLight freezing rain. Low clouds.5 mph98%29.63 "Hg4 mi
5:00 AM47 °FLight freezing rain. Overcast.5 mph98%29.62 "Hg6 mi
4:00 AM47 °FLight rain. Overcast.6 mph95%29.62 "Hg5 mi
3:00 AM49 °FLight rain. Overcast.7 mph92%29.59 "Hg9 mi
2:00 AM50 °FLight rain. Overcast.7 mph92%29.58 "Hg5 mi
1:00 AM52 °FOvercast.6 mph87%29.57 "Hg8 mi
12:00 AM54 °FOvercast.8 mph85%29.53 "Hg12 mi
11:00 PM
Mon, Apr 27
55 °FPassing clouds.6 mph84%29.50 "Hg18 mi
10:00 PM57 °FOvercast.6 mph83%29.50 "Hg16 mi
9:00 PM60 °FOvercast.5 mph77%29.50 "Hg19 mi
8:00 PM65 °FOvercast.6 mph59%29.44 "Hg37 mi
7:00 PM72 °FSunny.2 mph36%29.41 "Hg43 mi
6:00 PM74 °FSunny.2 mph30%29.44 "Hg22 mi
5:00 PM75 °FPassing clouds.2 mph35%29.44 "Hg31 mi
4:00 PM75 °FOvercast.3 mph36%29.47 "Hg17 mi
3:00 PM74 °FPassing clouds.2 mph33%29.47 "Hg19 mi
2:00 PM73 °FScattered clouds.1 mph40%29.50 "Hg19 mi
1:00 PM72 °FSunny.1 mph46%29.53 "Hg14 mi
12:00 PM67 °FSunny.1 mph54%29.56 "Hg12 mi
11:00 AM64 °FSunny.1 mph58%29.57 "Hg12 mi
10:00 AM60 °FSunny.1 mph65%29.58 "Hg14 mi
9:00 AM57 °FSunny.3 mph73%29.59 "Hg15 mi
8:00 AM52 °FSunny.2 mph87%29.60 "Hg12 mi
7:00 AM45 °FSunny.1 mph98%29.63 "Hg9 mi
Weather by CustomWeather, © 2015

See weather overviewHow to use our weather pages